CW0210 Weather Reports


Display with metric or nautical units.
time (UTC)temp
F
wind
direction
speed
MPH
gust
MPH
rain 1hr
in
rain 24hr
in
rain mn
in
humidity
%
barometer
mb
20240614061556 69 205 0.0 0.0 0.00 0.00 0.00 75 1009.6
20240614060053 69 243 0.0 0.0 0.00 0.00 0.00 74 1009.9
20240614054600 69 261 0.0 0.0 0.00 0.00 0.00 73 1010.2
20240614053049 70 261 0.0 0.0 0.00 0.00 0.00 72 1010.3
20240614051550 70 260 0.0 0.0 0.00 0.00 0.00 71 1010.4
20240614050046 71 250 0.0 0.0 0.00 0.00 0.00 70 1010.4
20240614044543 71 240 0.0 0.0 0.00 0.00 0.00 69 1010.4
20240614043044 71 280 0.0 0.0 0.00 0.00 0.00 68 1010.6
20240614041542 72 267 1.0 0.0 0.00 0.00 0.00 67 1010.8
20240614040034 72 251 1.0 0.0 0.00 0.00 0.00 66 1010.8
20240614034535 73 212 1.0 0.0 0.00 0.00 0.00 66 1010.8
20240614033034 73 310 1.0 0.0 0.00 0.00 0.00 66 1010.8
20240614031541 73 257 1.0 0.0 0.00 0.00 0.00 65 1010.9
20240614030032 74 267 1.0 0.0 0.00 0.00 0.00 65 1010.8
20240614024532 74 209 1.0 0.0 0.00 0.00 0.00 65 1010.8
20240614023031 74 292 0.0 0.0 0.00 0.00 0.00 65 1010.9
20240614021531 75 265 0.0 0.0 0.00 0.00 0.00 65 1011.4
20240614020031 75 263 0.0 0.0 0.00 0.00 0.00 65 1011.5
20240614014531 76 267 0.0 0.0 0.00 0.00 0.00 64 1011.3
20240614013033 76 239 0.0 0.0 0.00 0.00 0.00 64 1011.4
20240614011531 77 246 0.0 0.0 0.00 0.00 0.00 63 1011.6
20240614010031 78 279 1.0 0.0 0.00 0.00 0.00 63 1011.4
20240614004531 78 315 0.0 0.0 0.00 0.00 0.00 63 1011.3
20240614003031 79 26 1.0 0.0 0.00 0.00 0.00 62 1011.3
20240614001535 79 294 1.0 0.0 0.00 0.00 0.00 61 1011.1
20240614000048 80 270 0.0 0.0 0.00 0.00 0.00 60 1011.1
20240613234526 81 274 0.0 0.0 0.00 0.00 0.00 59 1011.0
20240613233025 82 316 0.0 0.0 0.00 0.00 0.00 59 1011.1
20240613231537 84 318 0.0 0.0 0.00 0.00 0.00 57 1010.9
20240613230026 84 223 0.0 0.0 0.00 0.00 0.00 55 1010.7
20240613224537 85 177 1.0 0.0 0.00 0.00 0.00 53 1010.5
20240613223023 85 263 0.0 0.0 0.00 0.00 0.00 53 1010.4
20240613221522 86 271 0.0 0.0 0.00 0.00 0.00 52 1010.6
20240613220037 87 286 1.0 0.0 0.00 0.00 0.00 51 1010.6
20240613214525 88 273 1.0 0.0 0.00 0.00 0.00 46 1010.5
20240613213020 88 244 0.0 0.0 0.00 0.00 0.00 42 1010.4
20240613211519 88 259 0.0 0.0 0.00 0.00 0.00 39 1010.5
20240613210025 88 223 0.0 0.0 0.00 0.00 0.00 42 1010.7
20240613204535 87 249 0.0 0.0 0.00 0.00 0.00 47 1010.7
20240613203018 86 249 1.0 0.0 0.00 0.00 0.00 41 1010.8
20240613201529 86 360 0.0 0.0 0.00 0.00 0.00 48 1010.8
20240613200016 85 355 0.0 0.0 0.00 0.00 0.00 49 1011.1
20240613194520 85 5 0.0 0.0 0.00 0.00 0.00 51 1011.4
20240613193009 86 5 1.0 0.0 0.00 0.00 0.00 47 1011.7
20240613191509 87 266 1.0 0.0 0.00 0.00 0.00 43 1011.5
20240613190009 88 229 1.0 0.0 0.00 0.00 0.00 40 1011.7
20240613184510 87 257 1.0 0.0 0.00 0.00 0.00 41 1011.6
20240613183001 86 242 1.0 0.0 0.00 0.00 0.00 42 1011.7
20240613181622 86 254 1.0 0.0 0.00 0.00 0.00 46 1012.0
20240613180058 85 248 1.0 0.0 0.00 0.00 0.00 43 1012.1
20240613174607 84 339 1.0 0.0 0.00 0.00 0.00 43 1012.2
20240613173052 83 257 1.0 0.0 0.00 0.00 0.00 44 1012.2
20240613171548 82 315 1.0 0.0 0.00 0.00 0.00 48 1012.3
20240613170058 81 61 1.0 0.0 0.00 0.00 0.00 50 1012.5
20240613164540 80 288 1.0 0.0 0.00 0.00 0.00 51 1012.7
20240613163042 79 267 1.0 0.0 0.00 0.00 0.00 53 1012.8
20240613161550 78 275 1.0 0.0 0.00 0.00 0.00 54 1013.0
20240613160037 77 157 2.0 0.0 0.00 0.00 0.00 54 1013.2
20240613154531 76 250 3.0 0.0 0.00 0.00 0.00 54 1013.3
20240613153026 75 234 1.0 0.0 0.00 0.00 0.00 55 1013.3
20240613151537 75 280 1.0 0.0 0.00 0.00 0.00 54 1013.4
20240613150020 74 273 2.0 0.0 0.00 0.00 0.00 54 1013.4
20240613144517 73 277 0.0 0.0 0.00 0.00 0.00 59 1013.3
20240613143015 73 187 2.0 0.0 0.00 0.00 0.00 60 1013.5
20240613141520 72 97 1.0 0.0 0.00 0.00 0.00 59 1013.4
20240613140010 71 246 3.0 0.0 0.00 0.00 0.00 60 1013.6
20240613134508 70 300 2.0 0.0 0.00 0.00 0.00 63 1013.7
20240613133004 70 279 1.0 0.0 0.00 0.00 0.00 65 1013.8
20240613131503 69 302 2.0 0.0 0.00 0.00 0.00 65 1013.9
20240613130059 69 209 1.0 0.0 0.00 0.00 0.00 68 1013.8
20240613124600 67 291 1.0 0.0 0.00 0.00 0.00 72 1014.0
20240613123053 67 189 1.0 0.0 0.00 0.00 0.00 73 1013.9
20240613121612 66 290 1.0 0.0 0.00 0.00 0.00 75 1013.7
20240613120049 65 296 0.0 0.0 0.00 0.00 0.00 77 1013.5
20240613114556 64 296 0.0 0.0 0.00 0.00 0.00 78 1013.6
20240613113048 63 296 0.0 0.0 0.00 0.00 0.00 80 1013.8
20240613111551 62 302 0.0 0.0 0.00 0.00 0.00 82 1014.0
20240613110049 61 248 0.0 0.0 0.00 0.00 0.00 85 1013.9
20240613104545 60 211 0.0 0.0 0.00 0.00 0.00 87 1013.6
20240613103044 59 211 0.0 0.0 0.00 0.00 0.00 88 1013.6
20240613101544 59 211 0.0 0.0 0.00 0.00 0.00 89 1013.6
20240613100043 58 211 0.0 0.0 0.00 0.00 0.00 90 1013.5
20240613094543 58 211 0.0 0.0 0.00 0.00 0.00 91 1013.2
20240613093039 58 211 0.0 0.0 0.00 0.00 0.00 90 1013.2
20240613091539 58 211 0.0 0.0 0.00 0.00 0.00 89 1013.1
20240613090034 59 211 0.0 0.0 0.00 0.00 0.00 88 1012.8
20240613084531 60 211 0.0 0.0 0.00 0.00 0.00 88 1012.7
20240613083035 60 211 0.0 0.0 0.00 0.00 0.00 87 1012.6
20240613081530 60 211 0.0 0.0 0.00 0.00 0.00 88 1012.6
20240613080028 60 281 0.0 0.0 0.00 0.00 0.00 88 1012.5
20240613074530 60 281 0.0 0.0 0.00 0.00 0.00 88 1012.3
20240613073038 60 281 0.0 0.0 0.00 0.00 0.00 87 1012.4
20240613071538 60 281 0.0 0.0 0.00 0.00 0.00 87 1012.3
20240613070024 61 281 0.0 0.0 0.00 0.00 0.00 86 1012.3
20240613064522 62 281 0.0 0.0 0.00 0.00 0.00 85 1012.3
20240613063019 63 281 0.0 0.0 0.00 0.00 0.00 83 1012.3